NOAA 16 DEB, 42335

Orbit data source: Space-Track

NOAA 16 DEB, 42335 is space debris in SSO originally from a launch on Thu, 21 Sep 2000 UTC launched from the Air Force Western Test Range (AFWTR). Debris objects in space refer to the collection of defunct objects orbiting the Earth. Examples of debris include non-operational satellites, rocket bodies, and fragments generated from explosions, collisions, or faulty payload assembly.

Loading next visibility...
Identifier
42335, 2000-055QB
Orbit
SSO
Last TLE update
8 hours ago
Origin
Manufacturer
Unknown
Mission
Spacecraft
Bus & Motor
Unknown
Mass
Unknown
Launch date (UTC)
2000-09-21 (25 years ago)
Launch vehicle
Unknown
Launch site
Air Force Western Test Range (AFWTR)
Object type
Payload
Rocket body
Debris
Shape & HBR
Unknown
Radar Cross Section
Small (<0.1 m²)

Expand to show TLE details & history

TLE from 8 hours ago
0 NOAA 16 DEB
1 42335U 00055QB  25186.40905204  .00003627  00000-0  13453-2 0  9999
2 42335  98.5815 243.2135 0027921 138.6576 221.6728 14.32602839483496
Epoch: 2025-07-05T09:49Z
TLE epoch observation values (Epoch: 2025-07-05T09:49:02.096Z)
Latitude
-0.00002°
Longitude
172.30726°
Altitude
800.942 km
Speed
7.445 km/s
True Right ascension
16h 12m 51s
True Declination
0° 00' 00"
Sunlit
Object was in full shadow at epoch
Visualization orbit readout
Latitude
0.55462°
Longitude
172.56978°
Altitude
800.489 km
Speed
7.446 km/s
Apparent Right ascension
16h 59m 47s
Apparent Declination
-18° 51' 03"
Sunlit
Object is in full shadow
Visualization observer readout
Local Sidereal Time
06:07:33
Azimuth
39.624° NE
Elevation
-64.378°
Doppler factor
1
Orbital elements
Apogee altitude
800.166 km
Perigee altitude
760.193 km
Semi-major axis
7,158.316 km
Eccentricity
0.00279
Inclination
98.5815°
RAAN
243.2135°
Arg. of periapsis
138.6576°
True anomaly
Unknown
Mean anomaly
221.6728°
Eccentric anomaly
Unknown
Mean motion
3.58366 °/min
Orbital period
100.46 mins
BSTAR
0.0013453
Loading maneuver chart data...
Loading SW <> Apogee altitude chart data...
Loading historical data...
Loading historical data...
Loading historical data...
Loading historical data...
Loading historical data...
Loading historical data...
Loading historical data...

NOAA 16 DEB Visibility forecast

Observer location: undefined°, undefined°

Span
Click to sort rows by Start time (UTC) header in descending order
Start Az.
Max El. time (UTC)
Max El. Az.
Max El.
End time (UTC)
End Az.
7 mins2025-07-06 02:44:03.694Z110.266° ESE2025-07-06 02:47:03.694Z67.692° E22.207°2025-07-06 02:51:03.694Z14.534° NNE
7 mins2025-07-06 04:23:03.694Z201.664° SSW2025-07-06 04:26:03.694Z255.589° W32.84°2025-07-06 04:30:03.694Z325.844° NNW
8 mins2025-07-06 16:35:03.694Z20.379° NNE2025-07-06 16:38:03.694Z71.124° E43.437°2025-07-06 16:43:03.694Z187.647° SSW
|